Location: Observatoire
(46.1952°N, 5.3391°E)
Time: 00:10:15
(UTC+02:00)

DUCHIFAT 1 - Visible Passes

Search period start: 25 April 2024 00:00
Search period end: 05 May 2024 00:00
Orbit: 542 x 557 km, 98.1° (Epoch: 24 April)

Date Brightness Start Highest point End Pass type
(mag) Time Alt. Az. Time Alt. Az. Time Alt. Az.
01 May ? 05:48:47 10° NNE 05:52:27 35° E 05:56:05 10° SSE visible
02 May ? 05:44:15 10° NNE 05:47:48 31° E 05:51:20 10° SSE visible
03 May ? 05:39:41 10° NE 05:43:08 27° E 05:46:31 10° SSE visible
04 May ? 05:35:07 10° NE 05:38:23 24° E 05:41:38 10° SSE visible
